Retour au catalogue

PSLV R/B

ActifHEO
NORAD 57755·ROCKET BODY·🇮🇳 India

Lancé Sep 2, 2023 depuis Satish Dhawan Space Centre

Loading…

Prochains Passages (prochaines 24 heures)

TLE

FraisSource: Space-Track

Époque: Sep 14, 2026, 20:58 UTC

1 57755U 23132B   26257.87425141  .00020242  00000-0  13338-2 0  9994
2 57755  19.1608  81.2424 5565537  54.5346 345.6329  4.76354208 49239

Suivez PSLV R/B en temps réel avec AllMySat

Download on the App Store